STARLINK-1378 (45548 NORAD) Tracking and Keplerian Element Data

This shows tracking and keplerian element data for the satellite.

Feedback or suggestion? Click here.




ElementValue
Catalog45548
NameSTARLINK-1378
Epoch Orbit570
Epoch Day145.66667824
Epoch Year2020
RAAN243.5208
Inclination53.0003
Eccentricity0.0003371
Argument of Perigee2.3708
Mean Anonmoly293.0357
Mean Motion15.4187324
Decay Rate0.04183602
L11 45548U 20025T 20145.66667824 .04183602 00000-0 85441-1 0 9999
L22 45548 53.0003 243.5208 0003371 2.3708 293.0357 15.41873240 5703

Live tracking and technical data element details for STARLINK-1378 (NORAD 45548). STARLINK-1378 can be tracked NOW for your location showing map with azimuth and elevation plus other details from your city location.

Track the satellite on the map from your city or location and see movement details for azimuth, elevation, latitude, longitude, range, height, and movement on the map or in text.







IsCatalogInMostPopularTable: catalog: 45548, numindb: 6
Update: records affected: 1



GetName: 45548 STARLINK-1378

Hit Count: updated at: Mon, 25 May 2020 08:35:26 GMT